sat.trackr.live / text

‹ back to catalog

STARLINK-4307

NORAD 53063 · 2022-077W

PAYLOAD ACTIVE UNKNOWN

§ Identity

Operator
Country
US
Launch date
2022-07-11
Launch site
AFWTR
Launch vehicle
Mass (kg)
RCS (m²)

Purposes: comms

External: N2YO · Heavens-Above · Gunter

§ Orbital elements

Epoch: 2026-05-25T01:21:13.028256Z

Period
95.64 min
Inclination
97.4477°
Eccentricity
0.0001285
Mean motion
15.05621147 rev/d
Perigee alt
548.7 km
Apogee alt
550.5 km
Semi-major
6,927.7 km
B*
3.9943e-4
RAAN
326.0578°
Arg perigee
136.9444°
Mean anomaly
223.1884°
Rev number
8,405

§ Raw data

STARLINK-43071 53063U 22077W   26145.05640079  .00005705  00000+0  39943-3 0  99912 53063  97.4477 326.0578 0001285 136.9444 223.1884 15.05621147 84052

JSON: /api/v1/satellites/53063 · /tle

For live sub-satellite position, see the globe view (requires WebGL).

§ Visibility from observer

Set your observer location to see the next 7 days of passes ≥ 10°. The values pass through the URL so the page stays shareable.

No JS? Fill the form by hand. The geolocation button needs JavaScript.